Content
SEND FEEDBACK

Daily
Averages
Monthly
Summary
United States of America

KNEELAND, CALIFORNIA


Home > North America > United States > California
Elevation: 5 feet     Latitude: 40 48N     Longitude: 124 07W

WEATHER
 
SELECT A DAY
Number of Records: 240,313;   Date Range: 1/1/95 - 8/17/14
 
SHARE

PRINT THIS DATA

[ ← Previous Day ]
WEATHER ALMANAC - JANUARY 31, 2013
[ Next Day → ]
[ °C ]   °F
Weather ElementAverageHighLow
Temperature39.6 °F48 °F (12:53 pm) (9:19 am)
Dewpoint39.2 °F44.6 °F (3:35 pm) (7:00 pm)
Humidity98.3 %100 % (12:51 am)80 % (12:53 pm)
Barometer29.43 in30.39 in (12:53 am) (7:00 pm)
Wind Speed2.3 mph6.9 mph (4:00 pm)
Weather ElementAverage
Visibility3.3 mi
Wind DirectionENE (80.1 °)

Weather ElementTotal
Precipitation0.01 in
Heating Degree Days41 (Base 65)
Averaged from 68 records on January 31, 2013
WEATHER CONDITIONS BREAKOUT
WIND DIRECTION BREAKOUT
WEATHER BY HOUR - JANUARY 31, 2013
[ °C ]   °F
Local TimeTemperatureDewpointHumidityBarometerVisibilityWind DirectionWind SpeedGust SpeedPrecipitationEventsConditions
12:51 AM41.0 °F41.0 °F100 %30.37 in1.0 miENE (70°)4.6 mphOvercast
12:53 AM41.0 °F41.0 °F100 %30.39 in1.2 miEast (80°)4.6 mphOvercast
1:03 AM41.0 °F41.0 °F100 %30.37 in3.0 miEast (80°)4.6 mphOvercast
1:21 AM41.0 °F41.0 °F100 %30.36 in2.0 miEast (80°)4.6 mphOvercast
1:32 AM41.0 °F41.0 °F100 %30.35 in1.8 miEast (90°)4.6 mphOvercast
1:53 AM41.0 °F41.0 °F100 %30.38 in0.8 miCalmMist
2:15 AM41.0 °F41.0 °F100 %30.35 in0.2 miESE (110°)4.6 mphFogFog
2:30 AM41.0 °F41.0 °F100 %30.35 in0.5 miCalmFogFog
2:38 AM41.0 °F41.0 °F100 %30.35 in0.2 miCalmFogFog
2:45 AM39.2 °F39.2 °F100 %30.35 in1.2 miCalmOvercast
2:53 AM37.9 °F37.9 °F100 %30.37 in10.0 miCalmMostly Cloudy
3:02 AM37.4 °F37.4 °F100 %30.35 in10.0 miCalmScattered Clouds
3:29 AM37.4 °F37.4 °F100 %30.35 in4.0 miEast (90°)4.6 mphMostly Cloudy
3:35 AM37.4 °F37.4 °F100 %30.35 in1.8 miEast (90°)4.6 mphMostly Cloudy
3:48 AM37.4 °F37.4 °F100 %30.34 in0.8 miEast (100°)3.5 mphMist
3:53 AM37.0 °F37.0 °F100 %30.37 in0.5 miESE (110°)5.8 mphFogFog
4:04 AM37.4 °F37.4 °F100 %30.34 in0.5 miEast (90°)4.6 mphFogFog
4:12 AM37.4 °F37.4 °F100 %30.33 in2.0 miEast (80°)3.5 mphOvercast
4:21 AM37.4 °F37.4 °F100 %30.33 in6.0 miCalmOvercast
4:26 AM37.4 °F37.4 °F100 %30.33 in1.8 miCalmOvercast
4:53 AM37.9 °F37.9 °F100 %30.36 in0.2 miCalmFogFog
5:14 AM37.4 °F37.4 °F100 %30.33 in0.5 miCalmFogFog
5:53 AM39.0 °F39.0 °F100 %30.35 in0.5 miCalmFogFog
6:37 AM37.4 °F37.4 °F100 %30.33 in2.5 miEast (90°)3.5 mphOvercast
6:51 AM37.4 °F37.4 °F100 %30.33 in1.2 miENE (70°)3.5 mphOvercast
6:53 AM37.9 °F37.9 °F100 %30.36 in1.0 miENE (70°)3.5 mphOvercast
7:31 AM37.4 °F37.4 °F100 %30.34 in0.8 miCalmMist
7:53 AM37.9 °F37.9 °F100 %30.36 in0.2 miEast (100°)3.5 mphFogFog
8:31 AM39.2 °F39.2 °F100 %30.35 in0.5 miCalmFogFog
8:37 AM39.2 °F39.2 °F100 %30.34 in0.2 miCalmFogFog
8:53 AM39.9 °F39.9 °F100 %30.37 in0.2 miCalmFogFog
9:10 AM41.0 °F41.0 °F100 %30.35 in0.2 miCalmFogFog
9:19 AM0.0 °F0.0 °FCalm
9:24 AM41.0 °F41.0 °F100 %30.35 in0.2 miCalmFogFog
9:53 AM42.1 °F42.1 °F100 %30.37 in0.2 miCalmFogFog
10:00 AM0.0 °F0.0 °F3.7 miSouth (170°)3.5 mph
10:01 AM42.8 °F42.8 °F100 %30.34 in0.8 miVariable4.6 mphMist
10:06 AM42.8 °F42.8 °F100 %30.34 in1.0 miSouth (190°)5.8 mphOvercast
10:07 AM42.8 °F42.8 °F100 %30.34 in2.0 miSouth (180°)4.6 mphOvercast
10:11 AM42.8 °F42.8 °F100 %30.34 in3.0 miSSW (200°)4.6 mphOvercast
10:13 AM42.8 °F42.8 °F100 %30.34 in5.0 miSouth (180°)5.8 mphOvercast
10:18 AM42.8 °F42.8 °F100 %30.34 in9.0 miSSW (210°)5.8 mphOvercast
10:53 AM43.0 °F43.0 °F100 %30.36 in9.0 miCalmScattered Clouds
10:59 AM44.6 °F42.8 °F93 %30.33 in9.0 miCalmScattered Clouds
11:27 AM44.6 °F42.8 °F93 %30.33 in9.0 miWSW (250°)4.6 mphPartly Cloudy
11:53 AM46.0 °F44.1 °F93 %30.35 in8.0 miWest (270°)3.5 mphClear
12:53 PM48.0 °F42.1 °F80 %30.33 in10.0 miNW (310°)4.6 mphClear
1:53 PM48.0 °F43.0 °F83 %30.30 in10.0 miWNW (300°)5.8 mphClear
2:53 PM46.9 °F43.0 °F86 %30.29 in10.0 miVariable3.5 mphClear
3:35 PM46.4 °F44.6 °F93 %30.27 in10.0 miWNW (290°)3.5 mphPartly Cloudy
3:53 PM46.0 °F43.0 °F89 %30.29 in10.0 miNW (320°)4.6 mphScattered Clouds
4:00 PM44.6 °F44.6 °F100 %30.27 in1.8 miNW (320°)6.9 mphMostly Cloudy
4:05 PM44.6 °F44.6 °F100 %30.27 in0.2 miNW (320°)4.6 mphFogFog
4:25 PM44.6 °F42.8 °F93 %30.27 in0.5 miNorth (360°)3.5 mphFogFog
4:33 PM44.6 °F42.8 °F93 %30.27 in0.5 miNorth (10°)3.5 mphFogFog
4:43 PM44.6 °F44.6 °F100 %30.26 in0.2 miCalmFogFog
4:53 PM43.0 °F43.0 °F100 %30.28 in0.8 miCalmMist
5:07 PM42.8 °F42.8 °F100 %30.26 in1.5 miCalmMostly Cloudy
5:18 PM42.8 °F42.8 °F100 %30.25 in2.0 miCalmScattered Clouds
5:25 PM42.8 °F42.8 °F100 %30.25 in5.0 miCalmPartly Cloudy
5:53 PM41.0 °F41.0 °F100 %30.27 in7.0 miCalmClear
6:53 PM39.9 °F39.9 °F100 %30.27 in10.0 miCalmClear
7:53 PM39.0 °F37.9 °F96 %30.26 in4.0 miCalmClear
8:53 PM37.9 °F37.9 °F100 %30.26 in4.0 miCalm0.01 inClear
9:53 PM37.9 °F37.0 °F97 %30.25 in7.0 miEast (100°)4.6 mphClear
10:53 PM37.0 °F37.0 °F100 %30.25 in4.0 miCalmClear
11:27 PM35.6 °F35.6 °F100 %30.22 in1.8 miENE (70°)3.5 mphClear
11:53 PM36.0 °F36.0 °F100 %30.25 in2.5 miCalmClear
Hourly data recorded from KACV, located miles away from Kneeland, California







STORIES FROM OUR PARTNERS